Погода в Миллерово

Россия / Ростовская область     48°55′18″N   40°23′41″E
темп.,
°C
ветер,
м/с
пор.,
м/с
влажн.,
%
обл.,
%
осадки,
мм/ч
давл.,
гПа
погр.,
м
2 июля, сб
сб200:00+11ссв410645 0.0 1015201
03:00+8ссз4108130 0.0 1016199
06:00+9ссз6117325 0.0 1016474
09:00+16ссз913515 0.0 10151144
12:00+19с101348100 0.1 10152079
15:00+20ссз81246100 0.1 10142006
18:00+21ссз9134450 0.0 10142133
21:00+18с713580 0.0 1015884
3 июля, вс
вс300:00+17ссз615600 0.0 1015548
03:00+14сз513720 0.0 1015286
06:00+15ссз512700 0.0 1015334
09:00+22с710400 0.0 10151607
12:00+26с793490 0.0 10142556
15:00+25ссв6737100 0.0 10142135
18:00+25ссз574176 0.0 10141621
21:00+20ссз345865 0.0 101581
4 июля, пн
пн400:00+16сз22825 0.0 101515
03:00+15зсз22900 0.0 101518
06:00+17с23790 0.0 1016120
09:00+25ссв35450 0.0 10161293
12:00+28с66320 0.0 10152425
15:00+30с772972 0.0 10142968
18:00+27ссв88345 0.0 10151930
21:00+19св48570 0.0 1017137
5 июля, вт
вт500:00+16св22670 0.0 101820
03:00+14св22710 0.0 101912
06:00+17св23590 0.0 101981
09:00+25св34370 0.0 10191354
12:00+29св55294 0.0 10182755
15:00+30св55253 0.0 10172859
18:00+28св763319 0.0 10181711
21:00+21в34510 0.0 101850
6 июля, ср
ср600:00+19вюв33590 0.0 101929
03:00+16в11623 0.0 102011
06:00+20ююв12490 0.0 102064
09:00+26юв22330 0.0 10191056
12:00+30в55274 0.0 10192416
15:00+31в44235 0.0 10172727
18:00+31вюв44230 0.0 10172732
21:00+22ююв23360 0.0 101716